Regional Weather Roundup
Issued by NWS

Home | Current Version | Previous Version | Text Only | Print | Product List | Glossary Off
Versions: 1 2 3 4 5 6 7 8 9 10 11 12 13 14 15 16 17 18 19 20 21 22 23 24 25 26 27 28 29 30 31 32 33 34 35 36 37 38 39 40 41 42 43 44 45 46 47 48 49 50

000
ASUS43 KLSX 302059
RWRMO

WEATHER SUMMARY FOR MISSOURI
NATIONAL WEATHER SERVICE SPRINGFIELD MO
400 PM CDT THU JUL 30 2015

NOTE: "FAIR" INDICATES FEW OR NO CLOUDS BELOW 12,000 FEET WITH NO
       SIGNIFICANT WEATHER AND/OR OBSTRUCTIONS TO VISIBILITY.
       CURRENT SKY AND/OR WEATHER CONDITIONS ARE NOT AVAILABLE FOR
       CHILLICOTHE AND FARMINGTON.

MOZ001>031-035>038-043-044-053-054-302200-
...NORTHERN AND WESTERN MISSOURI...

CITY           SKY/WX    TMP DP  RH WIND       PRES   REMARKS
KANSAS CTY INT PTSUNNY   85  66  53 SW6       30.18F
KANSAS C DTWN  PTSUNNY   88  52  29 S8        30.16F
LEE`S SUMMIT   CLOUDY    86  56  35 S5        30.18F
ST JOSEPH      MOSUNNY   85  63  47 S7        30.17F
CHILLICOTHE      N/A     88  64  44 W5        30.17F
KIRKSVILLE     SUNNY     87  61  41 W8        30.17F

$$
MOZ066>068-077>081-088>096-101>105-302200-
...SOUTHWEST MISSOURI...

CITY           SKY/WX    TMP DP  RH WIND       PRES   REMARKS
SPRINGFIELD    PTSUNNY   88  51  28 NE9       30.16F
JOPLIN         PTSUNNY   86  62  44 E7        30.16F

$$
MOZ032>034-039>042-045>050-055>058-069>072-302200-
...CENTRAL MISSOURI...

CITY           SKY/WX    TMP DP  RH WIND       PRES   REMARKS
COLUMBIA       PTSUNNY   86  63  45 W8        30.17F
JEFFERSON CITY PTSUNNY   86  56  35 NE3       30.15F
ROLLA          CLOUDY    85  56  37 E5        30.17F
SEDALIA        CLOUDY    89  56  32 E5        30.18F
OSAGE BEACH    CLOUDY    84  64  51 CALM      30.17F

$$
MOZ051-052-059>065-302200-
...EAST CENTRAL MISSOURI...

CITY           SKY/WX    TMP DP  RH WIND       PRES   REMARKS
ST LOUIS INTL  PTSUNNY   91  59  33 NW5       30.14F HX  90
SPIRIT OF STL  MOSUNNY   89  62  40 W7        30.13F
ST CHARLES     MOSUNNY   88  61  40 NW9       30.13F

$$
MOZ072>076-082>087-097>100-106>115-302200-
...SOUTH CENTRAL AND SOUTHEAST MISSOURI...

CITY           SKY/WX    TMP DP  RH WIND       PRES   REMARKS
CAPE GIRARDEAU NOT AVBL
FARMINGTON     SUNNY     86  57  37 NE8       30.19F
POPLAR BLUFF   SUNNY     87  63  44 NE8       30.10F
WEST PLAINS    MOSUNNY   85  58  39 NE7       30.17F

$$


USA.gov is the U.S. government's official web portal to all federal, state and local government web resources and services.